Date String (YYYY-MM-DD hh:mm:ss) UTC,Instrument flags,Ambient pressure (hPa),Sample flow (lpm),Bypass flow (lpm),Sample temperature (°C),Ambient temperature (°C),ASC tube jacket temperature (°C),LED temperature (°C),Box temperature (°C),Sample RH (%),Span deviation,Mass concentration (μg/m³),Mass concentration (μg/m³),Mass concentration (μg/m³)
DateTimeUTC,F1_M11,P_M11,Q1_M11,Q2_M11,T1_M11,T2_M11,T3_M11,T4_M11,T5_M11,U1_M11,ZSPAN_M11,X0_M11,X2_M11,X1_M11
2022-09-14 03:00:00,,0822.7,5.01,0.00,30.1,28.9,00.0,38.8,32.0,14.4,0001.1,0021.72,0012.34,0011.10
2022-09-14 03:01:00,,0822.6,5.01,0.00,30.1,28.9,00.0,38.8,32.0,14.4,0001.0,0022.53,0012.26,0011.03
2022-09-14 03:02:00,,0822.6,5.00,0.00,30.1,29.0,00.0,38.8,32.0,14.4,0001.4,0022.51,0012.18,0010.99
2022-09-14 03:03:00,,0822.6,4.99,0.00,30.1,29.0,00.0,38.8,32.0,14.5,0001.5,0021.46,0012.09,0010.97
2022-09-14 03:04:00,,0822.6,4.99,0.00,30.2,29.0,00.0,38.9,32.1,14.5,0001.5,0021.08,0012.08,0010.95
2022-09-14 03:05:00,,0822.6,5.00,0.00,30.2,27.8,00.0,38.8,32.0,14.3,0001.6,0020.92,0012.05,0010.96
2022-09-14 03:06:00,,0822.7,5.01,0.00,30.1,26.9,00.0,38.8,32.0,14.3,0001.4,0020.63,0012.08,0010.99
2022-09-14 03:07:00,,0822.6,5.01,0.00,30.1,26.9,00.0,38.7,31.8,14.3,0001.1,0020.88,0012.12,0011.03
2022-09-14 03:08:00,,0822.6,5.00,0.00,30.0,27.1,00.0,38.7,31.7,14.5,0000.7,0021.03,0012.07,0011.01
2022-09-14 03:09:00,,0822.6,4.99,0.00,29.9,27.4,00.0,38.7,31.6,14.7,0000.9,0022.07,0012.06,0011.01
2022-09-14 03:10:00,,0822.6,4.99,0.00,29.9,27.6,00.0,38.7,31.6,14.9,0001.1,0022.49,0012.14,0011.04
2022-09-14 03:11:00,,0822.7,5.01,0.00,29.9,27.9,00.0,38.7,31.7,14.9,0001.3,0022.41,0012.16,0011.06
2022-09-14 03:12:00,,0822.6,4.99,0.00,29.9,28.0,00.0,38.7,31.7,14.9,0001.4,0021.89,0012.24,0011.08
2022-09-14 03:13:00,,0822.7,5.00,0.00,29.9,28.2,00.0,38.7,31.7,14.8,0001.3,0021.82,0012.30,0011.08
2022-09-14 03:14:00,,0822.6,5.00,0.00,29.9,28.3,00.0,38.7,31.7,14.8,0001.7,0021.97,0012.37,0011.08
2022-09-14 03:15:00,,0822.7,5.00,0.00,29.9,28.4,00.0,38.7,31.7,14.8,0002.0,0022.41,0012.32,0011.08
2022-09-14 03:16:00,,0822.7,5.00,0.00,29.9,28.5,00.0,38.7,31.7,14.8,0002.3,0022.67,0012.35,0011.08
2022-09-14 03:17:00,,0822.7,5.00,0.00,29.9,28.6,00.0,38.7,31.8,14.8,0002.5,0022.92,0012.28,0011.05
2022-09-14 03:18:00,,0822.6,4.99,0.00,30.0,28.6,00.0,38.7,31.8,14.7,0002.8,0023.18,0012.24,0011.03
2022-09-14 03:19:00,,0822.7,5.00,0.00,30.0,28.7,00.0,38.7,31.9,14.7,0003.0,0023.12,0012.25,0011.03
2022-09-14 03:20:00,,0822.6,5.01,0.00,30.0,28.7,00.0,38.7,31.9,14.7,0002.9,0022.00,0012.21,0011.02
2022-09-14 03:21:00,,0822.6,4.99,0.00,30.0,28.8,00.0,38.7,31.9,14.8,0002.8,0021.67,0012.14,0010.98
2022-09-14 03:22:00,,0822.7,4.99,0.00,30.0,28.8,00.0,38.8,32.0,14.8,0003.0,0021.85,0012.13,0010.97
2022-09-14 03:23:00,,0822.6,5.02,0.00,30.1,28.9,00.0,38.8,32.0,14.8,0003.0,0020.97,0012.07,0010.95
2022-09-14 03:24:00,,0822.6,5.00,0.00,30.1,28.9,00.0,38.8,32.0,14.8,0003.2,0020.28,0011.97,0010.92
2022-09-14 03:25:00,,0822.7,5.00,0.00,30.1,28.9,00.0,38.8,32.0,14.7,0003.0,0020.55,0011.88,0010.88
2022-09-14 03:26:00,,0822.6,5.00,0.00,30.1,29.0,00.0,38.8,32.0,14.6,0002.7,0019.93,0011.89,0010.88
2022-09-14 03:27:00,,0822.7,4.99,0.00,30.2,29.0,00.0,38.8,32.0,14.8,0002.6,0020.28,0011.88,0010.86
2022-09-14 03:28:00,,0822.7,4.99,0.00,30.2,29.0,00.0,38.9,32.0,14.6,0002.6,0020.06,0011.90,0010.85
2022-09-14 03:29:00,,0822.7,5.00,0.00,30.2,29.0,00.0,38.9,32.1,14.5,0002.5,0019.52,0011.89,0010.85
2022-09-14 03:30:00,,0822.7,5.00,0.00,30.2,28.7,00.0,38.9,32.1,14.3,0002.3,0019.31,0011.90,0010.83
2022-09-14 03:31:00,,0822.7,5.00,0.00,30.2,27.3,00.0,38.9,32.0,14.4,0002.2,0020.37,0011.96,0010.82
2022-09-14 03:32:00,,0822.7,5.00,0.00,30.2,26.8,00.0,38.8,31.9,14.4,0002.1,0021.29,0011.99,0010.83
2022-09-14 03:33:00,,0822.7,5.00,0.00,30.1,26.9,00.0,38.8,31.8,14.4,0002.0,0021.14,0011.97,0010.81
2022-09-14 03:34:00,,0822.7,4.99,0.00,30.0,27.2,00.0,38.8,31.7,14.5,0002.0,0021.06,0011.92,0010.77
2022-09-14 03:35:00,,0822.7,5.01,0.00,30.0,27.5,00.0,38.7,31.6,14.5,0002.0,0021.06,0011.92,0010.76
2022-09-14 03:36:00,,0822.7,5.01,0.00,29.9,27.7,00.0,38.7,31.7,14.5,0001.8,0020.88,0011.96,0010.76
2022-09-14 03:37:00,,0822.7,4.99,0.00,29.9,27.9,00.0,38.7,31.7,14.4,0001.9,0021.75,0011.94,0010.73
2022-09-14 03:38:00,,0822.6,5.00,0.00,29.9,28.1,00.0,38.7,31.7,14.4,0001.8,0021.45,0011.93,0010.71
2022-09-14 03:39:00,,0822.6,4.99,0.00,29.9,28.3,00.0,38.7,31.8,14.3,0001.8,0021.90,0011.91,0010.68
2022-09-14 03:40:00,,0822.6,5.01,0.00,29.9,28.4,00.0,38.7,31.7,14.2,0001.8,0021.90,0011.84,0010.62
2022-09-14 03:41:00,,0822.6,4.99,0.00,29.9,28.5,00.0,38.7,31.8,14.2,0002.0,0023.10,0011.83,0010.62
2022-09-14 03:42:00,,0822.6,5.01,0.00,29.9,28.5,00.0,38.7,31.7,14.3,0002.0,0022.85,0011.79,0010.61
2022-09-14 03:43:00,,0822.6,4.99,0.00,30.0,28.6,00.0,38.7,31.8,14.4,0002.0,0022.14,0011.73,0010.57
2022-09-14 03:44:00,,0822.6,5.01,0.00,30.0,28.6,00.0,38.7,31.8,14.6,0001.9,0022.35,0011.71,0010.55
2022-09-14 03:45:00,,0822.6,5.01,0.00,30.0,28.7,00.0,38.7,31.9,14.4,0002.0,0022.48,0011.71,0010.57
2022-09-14 03:46:00,,0822.6,4.99,0.00,30.0,28.7,00.0,38.7,31.9,14.4,0001.9,0022.54,0011.67,0010.55
2022-09-14 03:47:00,,0822.6,4.99,0.00,30.0,28.8,00.0,38.8,31.9,15.0,0001.9,0022.97,0011.62,0010.53
2022-09-14 03:48:00,,0822.6,5.01,0.00,30.0,28.8,00.0,38.8,31.9,14.4,0001.8,0022.25,0011.61,0010.51
2022-09-14 03:49:00,,0822.6,5.00,0.00,30.1,28.9,00.0,38.8,32.0,14.2,0002.0,0021.88,0011.59,0010.50
2022-09-14 03:50:00,,0822.6,4.99,0.00,30.1,28.9,00.0,38.8,32.0,14.6,0001.9,0021.42,0011.58,0010.47
2022-09-14 03:51:00,,0822.6,5.00,0.00,30.1,28.9,00.0,38.8,32.0,14.6,0002.0,0021.46,0011.59,0010.47
2022-09-14 03:52:00,,0822.6,5.02,0.00,30.1,28.9,00.0,38.9,32.0,14.3,0002.1,0020.59,0011.54,0010.44
2022-09-14 03:53:00,,0822.6,4.99,0.00,30.2,29.0,00.0,38.9,32.0,14.0,0002.3,0019.98,0011.45,0010.39
2022-09-14 03:54:00,,0822.6,5.00,0.00,30.2,29.0,00.0,38.9,32.1,13.8,0002.2,0019.32,0011.38,0010.36
2022-09-14 03:55:00,,0822.7,4.99,0.00,30.2,29.0,00.0,38.9,32.1,13.8,0002.1,0019.27,0011.29,0010.29
2022-09-14 03:56:00,,0822.7,5.02,0.00,30.2,29.0,00.0,38.9,32.1,13.8,0001.9,0019.29,0011.24,0010.21
2022-09-14 03:57:00,,0822.7,5.01,0.00,30.3,29.1,00.0,39.0,32.1,13.7,0001.8,0019.41,0011.21,0010.13
2022-09-14 03:58:00,,0822.7,5.00,0.00,30.3,28.9,00.0,39.0,32.1,13.7,0001.8,0018.33,0011.09,0010.04
2022-09-14 03:59:00,,0822.7,5.00,0.00,30.3,27.6,00.0,38.9,32.1,13.7,0001.7,0018.39,0010.94,0009.94
